GW2584 Weather Reports


Display with metric or nautical units.
time (UTC)temp
F
wind
direction
speed
MPH
gust
MPH
rain 1hr
in
rain 24hr
in
rain mn
in
humidity
%
barometer
mb
20260504044605 51 212 1.0 4.0 0.00 0.00 0.00 34 1014.8
20260504043059 51 245 1.0 8.0 0.00 0.00 0.00 34 1014.8
20260504041557 53 238 1.0 4.0 0.00 0.00 0.00 33 1014.9
20260504040114 55 0 2.0 5.0 0.00 0.00 0.00 29 1014.9
20260504034622 55 210 0.0 4.0 0.00 0.00 0.00 29 1015.1
20260504033058 56 219 0.0 7.0 0.00 0.00 0.00 28 1015.1
20260504031556 56 212 4.0 11.0 0.00 0.00 0.00 29 1015.1
20260504030121 56 210 3.0 11.0 0.00 0.00 0.00 30 1015.1
20260504024600 56 171 3.0 12.0 0.00 0.00 0.00 30 1014.9
20260504023057 56 224 4.0 13.0 0.00 0.00 0.00 30 1014.9
20260504021557 57 184 4.0 11.0 0.00 0.00 0.00 28 1014.8
20260504020107 57 201 3.0 9.0 0.00 0.00 0.00 27 1014.8
20260504014604 58 119 4.0 9.0 0.00 0.00 0.00 27 1014.9
20260504013058 58 229 2.0 4.0 0.00 0.00 0.00 27 1014.8
20260504011556 59 192 4.0 9.0 0.00 0.00 0.00 26 1014.6
20260504010058 59 262 1.0 5.0 0.00 0.00 0.00 25 1014.8
20260504004556 59 218 1.0 8.0 0.00 0.00 0.00 26 1014.9
20260504003057 60 105 2.0 13.0 0.00 0.00 0.00 26 1015.0
20260504001606 59 224 2.0 7.0 0.00 0.00 0.00 27 1015.1
20260504000058 59 204 1.0 12.0 0.00 0.00 0.00 28 1015.1
20260503234556 61 231 1.0 6.0 0.00 0.00 0.00 25 1015.3
20260503233101 60 152 1.0 7.0 0.00 0.00 0.00 25 1015.3
20260503231556 60 199 3.0 19.0 0.00 0.00 0.00 26 1015.4
20260503230054 62 187 0.0 7.0 0.00 0.00 0.00 24 1014.9
20260503224554 62 110 3.0 7.0 0.00 0.00 0.00 24 1014.6
20260503223055 60 97 1.0 8.0 0.00 0.00 0.00 26 1015.3
20260503221555 62 27 2.0 9.0 0.00 0.00 0.00 23 1015.1
20260503220056 63 64 1.0 7.0 0.00 0.00 0.00 21 1015.2
20260503214603 64 35 2.0 6.0 0.00 0.00 0.00 22 1015.3
20260503213058 65 91 4.0 10.0 0.00 0.00 0.00 20 1015.5
20260503211557 65 27 2.0 7.0 0.00 0.00 0.00 19 1015.7
20260503210055 63 298 4.0 15.0 0.00 0.00 0.00 20 1016.2
20260503204602 64 237 3.0 9.0 0.00 0.00 0.00 19 1016.3
20260503203055 66 184 3.0 7.0 0.00 0.00 0.00 17 1016.4
20260503201556 66 289 2.0 10.0 0.00 0.00 0.00 17 1016.5
20260503200059 64 205 2.0 10.0 0.00 0.00 0.00 17 1016.5
20260503194556 64 45 3.0 12.0 0.00 0.00 0.00 17 1016.5
20260503193110 64 209 3.0 11.0 0.00 0.00 0.00 17 1016.7
20260503191554 65 154 3.0 11.0 0.00 0.00 0.00 16 1016.7
20260503190108 64 234 2.0 8.0 0.00 0.00 0.00 16 1017.1
20260503184601 64 25 2.0 6.0 0.00 0.00 0.00 17 1017.3
20260503183110 63 3 2.0 8.0 0.00 0.00 0.00 17 1017.7
20260503181554 63 210 1.0 6.0 0.00 0.00 0.00 18 1018.0
20260503180100 63 72 1.0 6.0 0.00 0.00 0.00 19 1018.1
20260503174557 62 23 1.0 8.0 0.00 0.00 0.00 19 1018.3
20260503173115 60 259 2.0 5.0 0.00 0.00 0.00 20 1018.5
20260503171555 60 216 1.0 5.0 0.00 0.00 0.00 21 1018.8
20260503160111 58 178 2.0 13.0 0.00 0.00 0.00 23 1019.2
20260503150111 54 237 3.0 10.0 0.00 0.00 0.00 27 1019.3
20260503140119 53 210 3.0 10.0 0.00 0.00 0.00 28 1019.7
20260503110110 53 238 5.0 11.0 0.00 0.00 0.00 26 1018.7
20260503100107 51 0 2.0 7.0 0.00 0.00 0.00 29 1019.0
20260503081615 50 221 2.0 9.0 0.00 0.00 0.00 30 1019.7
20260503071607 51 221 2.0 9.0 0.00 0.00 0.00 28 1020.1